Погода в Покрово-Пригородном

Россия / Тамбовская область     52°41′32″N   41°26′09″E
темп.,
°C
ветер,
м/с
пор.,
м/с
влажн.,
%
обл.,
%
осадки,
мм/ч
давл.,
гПа
погр.,
м
18 апреля, вс
вс1800:00+7зюз2289100 0.0 101923
03:00+6ю11910 0.0 101911
06:00+5ю23931 0.0 101968
09:00+10ю33705 0.0 1019579
12:00+12ю355577 0.1 10181659
15:00+13ююв234699 0.1 10181823
18:00+11з3463100 0.0 1018166
21:00+10ссв1161100 0.0 101815
19 апреля, пн
пн1900:00+9всв2378100 0.0 101854
03:00+7в4795100 0.9 1018214
06:00+7всв3696100 1.9 1017242
09:00+7всв359399 4.5 1018392
12:00+8в369488 3.7 1017541
15:00+10всв6777100 5.1 1017805
18:00+8в61287100 2.8 1017718
21:00+7вюв6128925 3.6 1018477
20 апреля, вт
вт2000:00+6в6129111 0.2 1018418
03:00+6вюв5119587 0.2 1019421
06:00+6в6119199 0.0 1018527
09:00+7вюв61286100 0.0 1019656
12:00+7в71382100 0.0 1018805
15:00+9в91674100 0.0 10151063
18:00+7вюв112082100 1.5 1012982
21:00+7вюв132587100 6.8 10081143
21 апреля, ср
ср2100:00+8юв132387100 2.0 10071185
03:00+8юв102088100 2.4 1006907
06:00+10ю7149066 1.1 1005919
09:00+9ююв91587100 1.8 10071370
12:00+8ю81290100 0.8 1009899
15:00+9юз5977100 1.1 10121129
18:00+9зюз6107443 0.2 1015939
21:00+7ююз498294 0.3 1018412
22 апреля, чт
чт2200:00+5ююз3891100 0.0 1019198
03:00+4ююз3691100 0.0 1021117
06:00+5ююз2585100 0.0 1022156
09:00+7ю3475100 0.0 1023257
12:00+11ююз3451100 0.0 10241780
15:00+11ююз3450100 0.0 10241409
18:00+11ю3560100 0.0 1024193
21:00+8ю2367100 0.0 102563